GW5324 Weather Reports


time (UTC)temp
C
wind
direction
speed
KPH
gust
KPH
rain 1hr
cm
rain 24hr
cm
rain mn
cm
humidity
%
barometer
mb
20260506044539 16 0.0 0.0 0.00 0.00 0.00 72 1016.6
20260506043029 16 0.0 0.0 0.00 0.00 0.00 1016.4
20260506041509 16 119 0.0 1.6 0.00 0.00 0.00 71 1016.4
20260506040049 -17 0.0 0.0 0.00 0.00 0.00 1016.2
20260506034504 16 109 1.6 4.8 0.00 0.00 0.00 70 1016.0
20260506033027 -17 0.0 0.0 0.00 0.00 0.00 1015.8
20260506031514 17 66 6.4 8.0 0.00 0.00 0.00 69 1015.7
20260506030028 17 0.0 0.0 0.00 0.00 0.00 1015.9
20260506024530 17 11 3.2 8.0 0.00 0.00 0.00 65 1015.5
20260506023027 17 0.0 0.0 0.00 0.00 0.00 65 1015.5
20260506021524 -17 352 3.2 0.0 0.00 0.00 0.00 1015.4
20260506020027 -17 0.0 0.0 0.00 0.00 0.00 1015.4
20260506014531 17 344 1.6 6.4 0.00 0.00 0.00 66 1015.5
20260506013030 -17 0.0 0.0 0.00 0.00 0.00 1015.5
20260506011529 17 17 3.2 6.4 0.00 0.00 0.00 66 1015.5
20260506010026 17 0.0 0.0 0.00 0.00 0.00 1015.5
20260506004529 17 336 6.4 8.0 0.00 0.00 0.00 66 1015.6
20260506003030 -17 0.0 0.0 0.00 0.00 0.00 1015.6
20260506001527 17 340 3.2 8.0 0.00 0.00 0.00 68 1015.7
20260506000028 -17 0.0 0.0 0.00 0.00 0.00 1015.8
20260505234530 17 319 6.4 9.7 0.00 0.00 0.00 69 1015.9
20260505233014 -17 256 3.2 0.0 0.00 0.00 0.00 69 1016.1
20260505231541 17 3.2 8.0 0.00 0.00 0.00 67 1016.1
20260505230028 -17 323 4.8 0.0 0.00 0.00 0.00 69 1016.2
20260505224530 17 4.8 9.7 0.00 0.00 0.00 69 1016.1
20260505223034 17 316 6.4 0.0 0.00 0.00 0.00 68 1016.3
20260505221529 17 4.8 12.9 0.00 0.00 0.00 68 1016.3
20260505220037 17 315 6.4 8.0 0.00 0.00 0.00 68 1016.3
20260505214535 17 4.8 9.7 0.00 0.00 0.00 66 1016.6
20260505213026 17 341 1.6 11.3 0.00 0.00 0.00 66 1016.5
20260505211530 -17 0.0 0.0 0.00 0.00 0.00 1016.5
20260505210002 17 269 3.2 6.4 0.00 0.00 0.00 67 1016.6
20260505204533 -17 0.0 0.0 0.00 0.00 0.00 1016.8
20260505203031 17 317 1.6 4.8 0.00 0.00 0.00 67 1016.8
20260505201531 -17 0.0 0.0 0.00 0.00 0.00 1017.0
20260505200037 16 1.6 4.8 0.00 0.00 0.00 70 1017.0
20260505194509 16 66 4.8 0.0 0.00 0.00 0.00 71 1017.1
20260505193030 15 3.2 4.8 0.00 0.00 0.00 73 1017.0
20260505191512 15 9 1.6 6.4 0.00 0.00 0.00 73 1017.2
20260505190034 15 1.6 3.2 0.00 0.00 0.00 1017.1
20260505184530 -17 0.0 0.0 0.00 0.00 0.00 1017.1
20260505183032 -17 0.0 0.0 0.00 0.00 0.00 1017.1
20260505181529 -17 0.0 0.0 0.00 0.00 0.00 1017.1
20260505180027 15 252 3.2 9.7 0.00 0.00 0.00 73 1017.1
20260505174539 -17 0.0 0.0 0.00 0.00 0.00 1016.9
20260505173030 -17 0.0 0.0 0.00 0.00 0.00 1016.8
20260505171529 -17 0.0 0.0 0.00 0.00 0.00 1016.8
20260505170030 -17 0.0 0.0 0.00 0.00 0.00 1016.7
20260505164528 13 0.0 0.0 0.00 0.00 0.00 1016.6
20260505163021 13 232 1.6 6.4 0.00 0.00 0.00 77 1016.7
20260505161533 -17 0.0 0.0 0.00 0.00 0.00 77 1016.5
20260505153029 -17 0.0 0.0 0.00 0.00 0.00 1016.5
20260505151529 13 219 4.8 11.3 0.00 0.00 0.00 81 1016.4
20260505124535 12 199 6.4 9.7 0.00 0.00 0.00 80 1015.4
20260505123030 12 190 0.0 3.2 0.00 0.00 0.00 80 1015.4
20260505121531 12 190 3.2 6.4 0.00 0.00 0.00 80 1015.4
20260505120030 12 179 4.8 6.4 0.00 0.00 0.00 79 1015.3
20260505114529 12 192 3.2 6.4 0.00 0.00 0.00 79 1015.3
20260505113026 13 234 3.2 6.4 0.00 0.00 0.00 79 1015.1
20260505111522 13 304 1.6 3.2 0.00 0.00 0.00 79 1015.2
20260505101512 12 194 4.8 8.0 0.00 0.00 0.00 80 1014.7
20260505100004 12 329 0.0 3.2 0.00 0.00 0.00 82 1014.7
20260505094504 12 329 0.0 3.2 0.00 0.00 0.00 82 1014.6
20260505093006 13 330 0.0 3.2 0.00 0.00 0.00 81 1014.6
20260505091528 13 329 0.0 3.2 0.00 0.00 0.00 81 1014.6
20260505090036 13 329 0.0 3.2 0.00 0.00 0.00 81 1014.3
20260505084505 13 330 0.0 3.2 0.00 0.00 0.00 81 1014.2
20260505083013 13 329 3.2 6.4 0.00 0.00 0.00 80 1014.3
20260505081509 13 310 4.8 6.4 0.00 0.00 0.00 80 1014.1
20260505080016 13 315 4.8 8.0 0.00 0.00 0.00 79 1014.1
20260505074529 13 316 3.2 9.7 0.00 0.00 0.00 78 1014.1
20260505073009 14 340 4.8 6.4 0.00 0.00 0.00 77 1013.6
20260505071544 15 309 0.0 8.0 0.00 0.00 0.00 75 1013.4
20260505070016 15 178 3.2 8.0 0.00 0.00 0.00 74 1013.4
20260505064524 15 315 1.6 3.2 0.00 0.00 0.00 73 1013.1
20260505063028 16 315 1.6 3.2 0.00 0.00 0.00 72 1013.0
20260505061510 16 321 1.6 8.0 0.00 0.00 0.00 70 1012.7
20260505060012 16 315 3.2 4.8 0.00 0.00 0.00 69 1012.5
20260505054517 17 320 6.4 8.0 0.00 0.00 0.00 67 1012.3
20260505053029 17 281 1.6 6.4 0.00 0.00 0.00 66 1012.2
20260505051507 18 298 1.6 6.4 0.00 0.00 0.00 66 1012.2